This is the latest recevied weather packets stored in our database for station/object KC1OEK-13. If no packets are shown the sender has not sent any weather packets the latest 10 day(s).
| Time | Temp. | Humidity | Pressure | Rain* | Wind** | Luminosity | Snow |
|---|---|---|---|---|---|---|---|
| 1777844342 | 13.33° C | 33% | 1011 hPa | 0 mm | - | 246 W/m² | - |
| 1777844040 | 13.33° C | 34% | 1010.9 hPa | 0 mm | - | 261 W/m² | - |
| 1777843736 | 12.78° C | 34% | 1010.8 hPa | 0 mm | - | 277 W/m² | - |
| 1777843435 | 12.22° C | 34% | 1011 hPa | 0 mm | - | 298 W/m² | - |
| 1777843131 | 12.22° C | 35% | 1011.2 hPa | 0 mm | - | 137 W/m² | - |
| 1777842828 | 12.22° C | 37% | 1011 hPa | 0 mm | - | 225 W/m² | - |
| 1777842523 | 13.33° C | 34% | 1011 hPa | 0 mm | - | 65 W/m² | - |
| 1777842221 | 13.33° C | 35% | 1010.9 hPa | 0 mm | - | 350 W/m² | - |
| 1777841916 | 13.33° C | 35% | 1011.1 hPa | 0 mm | - | 367 W/m² | - |
| 1777841612 | 12.78° C | 34% | 1011 hPa | 0 mm | - | 386 W/m² | - |
| 1777841309 | 12.78° C | 35% | 1010.9 hPa | 0 mm | - | 403 W/m² | - |
| 1777841007 | 12.78° C | 35% | 1011.1 hPa | 0 mm | - | 417 W/m² | - |
| 1777840704 | 13.33° C | 35% | 1010.9 hPa | 0 mm | - | 437 W/m² | - |
| 1777840401 | 13.33° C | 35% | 1010.9 hPa | 0 mm | - | 477 W/m² | - |
| 1777840098 | 13.33° C | 36% | 1011.1 hPa | 0 mm | - | 496 W/m² | - |
| 1777839796 | 12.78° C | 37% | 1011 hPa | 0 mm | - | 478 W/m² | - |
| 1777839494 | 13.33° C | 37% | 1011.2 hPa | 0 mm | - | 489 W/m² | - |
| 1777839190 | 13.33° C | 36% | 1011 hPa | 0 mm | - | 477 W/m² | - |
| 1777838888 | 12.78° C | 37% | 1011 hPa | 0 mm | - | 514 W/m² | - |
| 1777838583 | 12.78° C | 36% | 1010.9 hPa | 0 mm | - | 553 W/m² | - |
| 1777838281 | 12.78° C | 36% | 1011 hPa | 0 mm | - | 563 W/m² | - |
| 1777837978 | 12.78° C | 36% | 1011 hPa | 0 mm | - | 585 W/m² | - |
| 1777837675 | 12.22° C | 37% | 1011.1 hPa | 0 mm | - | 655 W/m² | - |
| 1777837371 | 11.67° C | 36% | 1011.3 hPa | 0 mm | - | 683 W/m² | - |
| 1777837067 | 12.22° C | 35% | 1011 hPa | 0 mm | - | 686 W/m² | - |
* Rain latest hour (hover to see other rain measurements)
** Current wind speed in m/s (hover to see current wind gust speed)